N75704 KAEJ-KBDG

Flight info

Callsign N75704
Flight time N/A
Altitude 10500
Route KAEJ DCT KBDG
Aircraft C172/L-S/C

Departure

Time 2026-04-15 14:12
Airport Central Colorado Regional Airport (KAEJ)

Arrival

Time N/A
Airport Blanding Municipal Airport (KBDG)
Time Latitude Longitude Altitude Speed Heading
2026-04-15 14:02 38.82278 -106.12671 7956 ft 0 kts 252°
2026-04-15 14:05 38.82276 -106.12674 7956 ft 3 kts 212°
2026-04-15 14:06 38.82259 -106.12655 7960 ft 5 kts 126°
2026-04-15 14:06 38.82223 -106.12612 7955 ft 9 kts 141°
2026-04-15 14:06 38.82222 -106.12575 7955 ft 0 kts 68°
2026-04-15 14:07 38.82231 -106.12551 7965 ft 7 kts 48°
2026-04-15 14:07 38.82305 -106.12568 7955 ft 17 kts 338°
2026-04-15 14:08 38.82430 -106.12629 7955 ft 15 kts 348°
2026-04-15 14:08 38.82470 -106.12619 7956 ft 0 kts 61°
2026-04-15 14:09 38.82481 -106.12588 7961 ft 9 kts 68°
2026-04-15 14:10 38.82466 -106.12528 7964 ft 7 kts 151°
2026-04-15 14:10 38.82465 -106.12526 7963 ft 0 kts 154°
2026-04-15 14:10 38.82364 -106.12482 7957 ft 33 kts 161°
2026-04-15 14:10 38.82035 -106.12340 7949 ft 63 kts 168°
2026-04-15 14:11 38.81569 -106.12118 7974 ft 78 kts 167°
2026-04-15 14:11 38.81020 -106.11874 7993 ft 88 kts 172°
2026-04-15 14:11 38.80432 -106.11640 8108 ft 87 kts 171°
2026-04-15 14:11 38.79931 -106.11367 8338 ft 74 kts 169°
2026-04-15 14:12 38.79449 -106.11077 8432 ft 75 kts 168°
2026-04-15 14:12 38.78975 -106.10755 8507 ft 82 kts 160°
2026-04-15 14:12 38.78569 -106.10167 8529 ft 99 kts 122°
2026-04-15 14:12 38.78355 -106.09342 8693 ft 104 kts 84°
2026-04-15 14:13 38.78878 -106.08772 8793 ft 107 kts 355°
2026-04-15 14:13 38.79389 -106.09233 8914 ft 88 kts 270°
2026-04-15 14:13 38.79328 -106.09958 9009 ft 90 kts 271°
2026-04-15 14:13 38.79495 -106.10730 9094 ft 91 kts 269°
2026-04-15 14:14 38.79640 -106.11543 9185 ft 94 kts 273°
2026-04-15 14:14 38.79742 -106.12365 9259 ft 96 kts 272°
2026-04-15 14:14 38.79859 -106.13213 9346 ft 99 kts 274°
2026-04-15 14:14 38.79982 -106.14034 9544 ft 89 kts 273°
2026-04-15 14:15 38.80115 -106.14813 9628 ft 92 kts 273°
2026-04-15 14:15 38.80265 -106.15599 9733 ft 89 kts 271°
2026-04-15 14:15 38.80319 -106.16369 9837 ft 85 kts 264°
2026-04-15 14:15 38.80405 -106.17108 9934 ft 83 kts 266°
2026-04-15 14:16 38.80429 -106.17843 9980 ft 84 kts 264°
2026-04-15 14:16 38.80437 -106.18578 10069 ft 82 kts 261°
2026-04-15 14:16 38.80414 -106.19286 10223 ft 79 kts 262°
2026-04-15 14:16 38.80336 -106.19936 10353 ft 74 kts 250°
2026-04-15 14:17 38.80167 -106.20536 10501 ft 69 kts 241°
2026-04-15 14:17 38.79973 -106.21103 10602 ft 68 kts 238°
2026-04-15 14:17 38.79786 -106.21653 10752 ft 67 kts 246°
2026-04-15 14:17 38.79574 -106.22164 10962 ft 61 kts 243°
2026-04-15 14:18 38.79396 -106.22686 11005 ft 68 kts 238°
2026-04-15 14:18 38.79189 -106.23232 11018 ft 70 kts 241°
2026-04-15 14:18 38.78983 -106.23799 11071 ft 72 kts 241°
2026-04-15 14:18 38.78758 -106.24379 11092 ft 70 kts 242°
2026-04-15 14:19 38.78556 -106.24940 11170 ft 72 kts 256°
2026-04-15 14:19 38.78472 -106.25567 11248 ft 71 kts 259°
2026-04-15 14:19 38.78416 -106.26174 11368 ft 67 kts 255°
2026-04-15 14:19 38.78372 -106.26795 11553 ft 72 kts 257°
2026-04-15 14:20 38.78312 -106.27426 11835 ft 69 kts 253°
2026-04-15 14:20 38.78280 -106.28060 11951 ft 72 kts 255°
2026-04-15 14:20 38.78217 -106.28673 12100 ft 66 kts 254°
2026-04-15 14:20 38.78147 -106.29264 12204 ft 69 kts 253°
2026-04-15 14:21 38.78012 -106.29842 12325 ft 67 kts 246°
2026-04-15 14:21 38.77873 -106.30406 12418 ft 66 kts 246°
2026-04-15 14:21 38.77733 -106.30959 12490 ft 66 kts 246°
2026-04-15 14:21 38.77552 -106.31488 12564 ft 64 kts 230°
2026-04-15 14:22 38.77326 -106.31979 12628 ft 64 kts 233°
2026-04-15 14:22 38.77068 -106.32446 12683 ft 64 kts 231°
2026-04-15 14:22 38.76795 -106.32900 12828 ft 65 kts 231°
2026-04-15 14:22 38.76514 -106.33369 12938 ft 66 kts 231°
2026-04-15 14:23 38.76255 -106.33830 13029 ft 63 kts 233°
2026-04-15 14:23 38.75998 -106.34283 13049 ft 63 kts 232°
2026-04-15 14:23 38.75737 -106.34730 13011 ft 65 kts 232°
2026-04-15 14:23 38.75448 -106.35142 12995 ft 58 kts 211°
2026-04-15 14:24 38.75071 -106.35285 12808 ft 57 kts 200°
2026-04-15 14:24 38.74695 -106.34944 12100 ft 69 kts 178°